| time (UTC) | temp F | wind direction | speed MPH | gust MPH | rain 1hr in | rain 24hr in | rain mn in | humidity % | barometer mb |
| 20260509173533 | 56 | 195 | 0.0 | 2.0 | 0.08 | 0.10 | 0.09 | 88 | 1010.4 |
| 20260509172035 | 57 | 230 | 0.0 | 2.0 | 0.05 | 0.07 | 0.06 | 88 | 1010.6 |
| 20260509170535 | 57 | 273 | 2.0 | 5.0 | 0.02 | 0.04 | 0.03 | 87 | 1010.5 |
| 20260509165027 | 58 | 311 | 1.0 | 3.0 | 0.01 | 0.03 | 0.02 | 85 | 1010.5 |
| 20260509163555 | 58 | 89 | 1.0 | 5.0 | 0.00 | 0.02 | 0.01 | 83 | 1010.5 |
| 20260509162050 | 58 | 283 | 3.0 | 5.0 | 0.00 | 0.02 | 0.01 | 83 | 1010.3 |
| 20260509160538 | 57 | 218 | 1.0 | 4.0 | 0.00 | 0.02 | 0.01 | 85 | 1010.5 |
| 20260509155032 | 56 | 273 | 1.0 | 4.0 | 0.00 | 0.02 | 0.01 | 86 | 1010.7 |
| 20260509153529 | 56 | 278 | 2.0 | 4.0 | 0.01 | 0.02 | 0.01 | 87 | 1010.7 |
| 20260509152030 | 56 | 288 | 0.0 | 2.0 | 0.01 | 0.02 | 0.01 | 86 | 1010.5 |
| 20260509150558 | 56 | 266 | 1.0 | 3.0 | 0.01 | 0.02 | 0.01 | 85 | 1010.5 |
| 20260509145029 | 55 | 286 | 0.0 | 2.0 | 0.00 | 0.01 | 0.00 | 85 | 1010.7 |
| 20260509143547 | 55 | 307 | 2.0 | 4.0 | 0.00 | 0.01 | 0.00 | 86 | 1010.8 |
| 20260509142046 | 54 | 269 | 0.0 | 3.0 | 0.00 | 0.01 | 0.00 | 88 | 1010.7 |
| 20260509140552 | 54 | 261 | 1.0 | 2.0 | 0.00 | 0.01 | 0.00 | 88 | 1010.5 |
| 20260509135027 | 54 | 292 | 1.0 | 2.0 | 0.00 | 0.01 | 0.00 | 87 | 1010.5 |
| 20260509133533 | 53 | 187 | 0.0 | 0.0 | 0.00 | 0.01 | 0.00 | 87 | 1010.4 |
| 20260509132032 | 53 | 221 | 0.0 | 0.0 | 0.00 | 0.01 | 0.00 | 88 | 1010.4 |
| 20260509130533 | 52 | 230 | 0.0 | 0.0 | 0.00 | 0.01 | 0.00 | 87 | 1010.4 |
| 20260509125105 | 52 | 226 | 0.0 | 0.0 | 0.00 | 0.01 | 0.00 | 88 | 1010.5 |
| 20260509123557 | 51 | 226 | 0.0 | 0.0 | 0.00 | 0.01 | 0.00 | 88 | 1010.8 |
| 20260509122032 | 51 | 188 | 0.0 | 1.0 | 0.00 | 0.01 | 0.00 | 88 | 1010.9 |
| 20260509120529 | 51 | 206 | 0.0 | 2.0 | 0.00 | 0.01 | 0.00 | 89 | 1011.0 |
| 20260509115037 | 50 | 306 | 0.0 | 2.0 | 0.00 | 0.01 | 0.00 | 90 | 1010.7 |
| 20260509113555 | 50 | 189 | 0.0 | 1.0 | 0.00 | 0.01 | 0.00 | 90 | 1010.6 |
| 20260509112032 | 50 | 189 | 0.0 | 1.0 | 0.00 | 0.01 | 0.00 | 91 | 1010.6 |
| 20260509110533 | 49 | 210 | 0.0 | 0.0 | 0.00 | 0.01 | 0.00 | 91 | 1010.2 |
| 20260509105028 | 49 | 210 | 0.0 | 0.0 | 0.00 | 0.01 | 0.00 | 90 | 1010.4 |
| 20260509103529 | 49 | 210 | 0.0 | 0.0 | 0.00 | 0.01 | 0.00 | 91 | 1010.4 |
| 20260509102046 | 49 | 210 | 0.0 | 0.0 | 0.00 | 0.01 | 0.00 | 90 | 1010.5 |
| 20260509100545 | 49 | 205 | 0.0 | 0.0 | 0.00 | 0.01 | 0.00 | 90 | 1010.6 |
| 20260509095042 | 49 | 205 | 0.0 | 0.0 | 0.00 | 0.01 | 0.00 | 90 | 1010.6 |
| 20260509093541 | 49 | 205 | 0.0 | 0.0 | 0.00 | 0.01 | 0.00 | 89 | 1010.6 |
| 20260509092041 | 49 | 205 | 0.0 | 0.0 | 0.00 | 0.01 | 0.00 | 89 | 1010.5 |
| 20260509090537 | 49 | 205 | 0.0 | 0.0 | 0.00 | 0.01 | 0.00 | 89 | 1010.6 |
| 20260509085033 | 49 | 205 | 0.0 | 0.0 | 0.00 | 0.01 | 0.00 | 89 | 1010.8 |
| 20260509083528 | 49 | 205 | 0.0 | 0.0 | 0.00 | 0.01 | 0.00 | 89 | 1011.0 |
| 20260509082043 | 49 | 205 | 0.0 | 0.0 | 0.00 | 0.01 | 0.00 | 88 | 1011.1 |
| 20260509080542 | 49 | 205 | 0.0 | 0.0 | 0.00 | 0.01 | 0.00 | 88 | 1011.1 |
| 20260509075036 | 49 | 205 | 0.0 | 0.0 | 0.00 | 0.01 | 0.00 | 88 | 1011.0 |
| 20260509073535 | 50 | 205 | 0.0 | 0.0 | 0.00 | 0.01 | 0.00 | 87 | 1011.0 |
| 20260509072050 | 50 | 205 | 0.0 | 0.0 | 0.00 | 0.01 | 0.00 | 87 | 1011.1 |
| 20260509070549 | 50 | 205 | 0.0 | 0.0 | 0.00 | 0.01 | 0.00 | 87 | 1011.2 |
| 20260509065043 | 50 | 205 | 0.0 | 0.0 | 0.00 | 0.04 | 0.00 | 87 | 1011.2 |
| 20260509063541 | 50 | 205 | 0.0 | 0.0 | 0.00 | 0.04 | 0.00 | 86 | 1011.2 |
| 20260509062037 | 50 | 205 | 0.0 | 0.0 | 0.00 | 0.04 | 0.00 | 86 | 1010.8 |
| 20260509060538 | 50 | 205 | 0.0 | 0.0 | 0.00 | 0.04 | 0.00 | 86 | 1011.0 |
| 20260509055049 | 50 | 205 | 0.0 | 0.0 | 0.00 | 0.04 | 0.00 | 87 | 1011.1 |
| 20260509053546 | 50 | 209 | 0.0 | 0.0 | 0.00 | 0.04 | 0.00 | 87 | 1011.3 |
| 20260509052038 | 50 | 209 | 0.0 | 0.0 | 0.00 | 0.04 | 0.00 | 89 | 1011.8 |
| 20260509050606 | 50 | 209 | 0.0 | 3.0 | 0.00 | 0.04 | 0.00 | 89 | 1011.9 |
| 20260509045039 | 49 | 284 | 0.0 | 0.0 | 0.01 | 0.05 | 0.00 | 89 | 1011.7 |
| 20260509043537 | 49 | 284 | 0.0 | 0.0 | 0.01 | 0.05 | 0.00 | 88 | 1011.8 |
| 20260509042036 | 49 | 284 | 0.0 | 0.0 | 0.01 | 0.05 | 0.00 | 87 | 1011.3 |
| 20260509040535 | 49 | 284 | 0.0 | 0.0 | 0.01 | 0.05 | 0.00 | 86 | 1011.4 |
| 20260509035107 | 49 | 284 | 0.0 | 0.0 | 0.00 | 0.04 | 0.04 | 85 | 1011.6 |
| 20260509033528 | 49 | 284 | 0.0 | 0.0 | 0.00 | 0.04 | 0.04 | 84 | 1011.8 |
| 20260509032032 | 49 | 284 | 0.0 | 0.0 | 0.00 | 0.04 | 0.04 | 85 | 1011.8 |
| 20260509030526 | 49 | 284 | 0.0 | 2.0 | 0.00 | 0.04 | 0.04 | 84 | 1011.7 |
| 20260509025042 | 50 | 284 | 0.0 | 0.0 | 0.00 | 0.04 | 0.04 | 82 | 1011.7 |
| 20260509023541 | 50 | 284 | 0.0 | 0.0 | 0.00 | 0.04 | 0.04 | 81 | 1011.8 |
| 20260509022040 | 51 | 284 | 0.0 | 0.0 | 0.00 | 0.04 | 0.04 | 80 | 1011.8 |
| 20260509020538 | 52 | 284 | 1.0 | 2.0 | 0.00 | 0.04 | 0.04 | 79 | 1011.7 |
| 20260509015034 | 53 | 307 | 0.0 | 0.0 | 0.00 | 0.04 | 0.04 | 78 | 1011.7 |
| 20260509013529 | 53 | 307 | 0.0 | 0.0 | 0.00 | 0.04 | 0.04 | 77 | 1011.5 |
| 20260509012042 | 54 | 307 | 0.0 | 0.0 | 0.00 | 0.04 | 0.04 | 78 | 1011.2 |
| 20260509010530 | 54 | 307 | 0.0 | 0.0 | 0.00 | 0.04 | 0.04 | 77 | 1011.5 |
| 20260509005039 | 55 | 307 | 0.0 | 0.0 | 0.00 | 0.04 | 0.04 | 75 | 1011.0 |
| 20260509003637 | 55 | 307 | 0.0 | 0.0 | 0.00 | 0.04 | 0.04 | 74 | 1010.7 |
| 20260509002042 | 55 | 307 | 0.0 | 0.0 | 0.00 | 0.04 | 0.04 | 71 | 1010.4 |
| 20260509000540 | 56 | 274 | 0.0 | 2.0 | 0.00 | 0.04 | 0.04 | 72 | 1010.2 |
| 20260508235041 | 57 | 335 | 0.0 | 0.0 | 0.00 | 0.04 | 0.04 | 68 | 1010.0 |
| 20260508233607 | 57 | 335 | 0.0 | 0.0 | 0.00 | 0.04 | 0.04 | 69 | 1009.9 |
| 20260508232106 | 58 | 335 | 0.0 | 0.0 | 0.00 | 0.04 | 0.04 | 66 | 1010.0 |
| 20260508230602 | 59 | 334 | 0.0 | 1.0 | 0.00 | 0.04 | 0.04 | 61 | 1010.0 |
| 20260508225032 | 60 | 263 | 0.0 | 2.0 | 0.00 | 0.04 | 0.04 | 59 | 1010.0 |
| 20260508223601 | 60 | 278 | 0.0 | 0.0 | 0.00 | 0.04 | 0.04 | 57 | 1009.9 |
| 20260508222033 | 61 | 94 | 1.0 | 3.0 | 0.00 | 0.04 | 0.04 | 53 | 1009.7 |
| 20260508220534 | 61 | 219 | 0.0 | 6.0 | 0.00 | 0.04 | 0.04 | 56 | 1009.9 |
| 20260508215034 | 61 | 181 | 2.0 | 8.0 | 0.00 | 0.04 | 0.04 | 53 | 1009.7 |
| 20260508213533 | 61 | 220 | 1.0 | 5.0 | 0.00 | 0.04 | 0.04 | 55 | 1010.0 |
| 20260508212047 | 60 | 214 | 1.0 | 6.0 | 0.00 | 0.04 | 0.04 | 56 | 1009.9 |
| 20260508210546 | 60 | 234 | 2.0 | 7.0 | 0.00 | 0.04 | 0.04 | 58 | 1009.9 |
| 20260508205102 | 59 | 293 | 1.0 | 6.0 | 0.00 | 0.04 | 0.04 | 57 | 1010.0 |
| 20260508203539 | 59 | 287 | 3.0 | 7.0 | 0.00 | 0.04 | 0.04 | 59 | 1010.1 |
| 20260508202029 | 58 | 255 | 3.0 | 10.0 | 0.00 | 0.04 | 0.04 | 60 | 1010.4 |
| 20260508200529 | 57 | 332 | 1.0 | 5.0 | 0.00 | 0.04 | 0.04 | 65 | 1010.4 |
| 20260508195058 | 58 | 185 | 2.0 | 8.0 | 0.00 | 0.04 | 0.04 | 66 | 1010.9 |
| 20260508193533 | 58 | 21 | 1.0 | 5.0 | 0.00 | 0.04 | 0.04 | 57 | 1010.7 |
| 20260508192034 | 58 | 160 | 0.0 | 4.0 | 0.00 | 0.04 | 0.04 | 61 | 1010.7 |
| 20260508190537 | 58 | 274 | 1.0 | 4.0 | 0.00 | 0.04 | 0.04 | 57 | 1010.8 |
| 20260508185053 | 59 | 294 | 3.0 | 6.0 | 0.00 | 0.04 | 0.04 | 52 | 1010.7 |
| 20260508183528 | 59 | 111 | 1.0 | 12.0 | 0.00 | 0.04 | 0.04 | 50 | 1010.6 |
| 20260508182046 | 60 | 214 | 2.0 | 7.0 | 0.00 | 0.04 | 0.04 | 50 | 1010.7 |
| 20260508180534 | 60 | 224 | 4.0 | 11.0 | 0.00 | 0.04 | 0.04 | 48 | 1010.4 |
| 20260508175035 | 60 | 172 | 2.0 | 6.0 | 0.00 | 0.04 | 0.04 | 51 | 1010.5 |